Date String (YYYY-MM-DD hh:mm:ss) UTC,Instrument flags,Ambient pressure (hPa),Sample flow (lpm),Bypass flow (lpm),Sample temperature (°C),Ambient temperature (°C),ASC tube jacket temperature (°C),LED temperature (°C),Box temperature (°C),Sample RH (%),Span deviation,Mass concentration (μg/m³),Mass concentration (μg/m³),Mass concentration (μg/m³)
DateTimeUTC,F1_M11,P_M11,Q1_M11,Q2_M11,T1_M11,T2_M11,T3_M11,T4_M11,T5_M11,U1_M11,ZSPAN_M11,X0_M11,X2_M11,X1_M11
2022-07-09 05:00:00,,0833.1,5.01,0.00,29.5,27.3,00.0,38.1,31.3,30.9,0000.0,0011.01,0003.90,0003.16
2022-07-09 05:01:00,,0833.1,4.99,0.00,29.4,27.3,00.0,38.1,31.2,30.6,0000.0,0011.98,0003.93,0003.17
2022-07-09 05:02:00,,0833.1,5.00,0.00,29.4,27.4,00.0,38.1,31.2,30.6,0000.0,0012.10,0003.95,0003.18
2022-07-09 05:03:00,,0833.1,5.00,0.00,29.4,27.5,00.0,38.1,31.2,30.5,0000.0,0012.08,0003.97,0003.18
2022-07-09 05:04:00,,0833.1,5.00,0.00,29.4,27.7,00.0,38.1,31.2,29.7,0000.0,0011.87,0003.98,0003.19
2022-07-09 05:05:00,,0833.1,5.01,0.00,29.4,27.8,00.0,38.1,31.3,29.2,0000.0,0010.96,0003.97,0003.19
2022-07-09 05:06:00,,0833.1,5.00,0.00,29.4,28.0,00.0,38.1,31.3,28.9,0000.0,0011.01,0003.95,0003.19
2022-07-09 05:07:00,,0833.1,4.99,0.00,29.4,28.1,00.0,38.1,31.3,28.7,0000.0,0010.96,0003.96,0003.18
2022-07-09 05:08:00,,0833.2,5.00,0.00,29.4,28.2,00.0,38.2,31.4,28.6,0000.0,0010.50,0003.96,0003.18
2022-07-09 05:09:00,,0833.2,5.01,0.00,29.5,28.3,00.0,38.2,31.4,28.4,0000.0,0010.12,0003.95,0003.18
2022-07-09 05:10:00,,0833.2,5.00,0.00,29.5,28.4,00.0,38.2,31.5,28.4,0000.0,0010.67,0003.95,0003.17
2022-07-09 05:11:00,,0833.1,5.01,0.00,29.5,28.5,00.0,38.2,31.5,28.3,0000.0,0010.66,0003.89,0003.16
2022-07-09 05:12:00,,0833.2,4.99,0.00,29.6,28.6,00.0,38.2,31.6,28.3,0000.0,0009.99,0003.87,0003.15
2022-07-09 05:13:00,,0833.2,5.00,0.00,29.6,28.4,00.0,38.2,31.5,28.3,0000.0,0010.12,0003.81,0003.15
2022-07-09 05:14:00,,0833.1,4.99,0.00,29.6,27.7,00.0,38.2,31.4,28.1,0000.0,0010.11,0003.79,0003.14
2022-07-09 05:15:00,,0833.2,4.99,0.00,29.5,27.4,00.0,38.2,31.3,27.7,0000.0,0010.19,0003.80,0003.14
2022-07-09 05:16:00,,0833.2,4.99,0.00,29.5,27.4,00.0,38.2,31.2,27.4,0000.0,0010.76,0003.80,0003.13
2022-07-09 05:17:00,,0833.2,5.00,0.00,29.4,27.5,00.0,38.2,31.2,27.8,0000.0,0011.09,0003.76,0003.13
2022-07-09 05:18:00,,0833.1,5.00,0.00,29.4,27.6,00.0,38.2,31.2,27.7,0000.0,0010.82,0003.71,0003.13
2022-07-09 05:19:00,,0833.2,5.00,0.00,29.4,27.7,00.0,38.2,31.2,27.5,0000.0,0010.33,0003.66,0003.13
2022-07-09 05:20:00,,0833.2,5.01,0.00,29.4,27.9,00.0,38.2,31.3,27.9,0000.0,0010.72,0003.67,0003.14
2022-07-09 05:21:00,,0833.2,4.99,0.00,29.4,28.0,00.0,38.2,31.3,27.2,0000.0,0010.13,0003.66,0003.14
2022-07-09 05:22:00,,0833.3,5.01,0.00,29.5,28.1,00.0,38.2,31.3,26.9,0000.0,0010.04,0003.68,0003.15
2022-07-09 05:23:00,,0833.3,4.99,0.00,29.5,28.3,00.0,38.2,31.4,27.0,0000.0,0009.62,0003.68,0003.15
2022-07-09 05:24:00,,0833.3,5.00,0.00,29.5,28.4,00.0,38.3,31.4,27.1,0000.0,0009.29,0003.68,0003.14
2022-07-09 05:25:00,,0833.3,5.01,0.00,29.6,28.5,00.0,38.3,31.5,27.3,0000.0,0009.20,0003.68,0003.14
2022-07-09 05:26:00,,0833.3,5.01,0.00,29.6,28.5,00.0,38.3,31.5,27.3,0000.0,0009.10,0003.66,0003.15
2022-07-09 05:27:00,,0833.3,5.00,0.00,29.6,28.6,00.0,38.3,31.6,26.9,0000.0,0008.53,0003.67,0003.15
2022-07-09 05:28:00,,0833.3,5.00,0.00,29.6,28.4,00.0,38.3,31.6,26.4,0000.0,0008.19,0003.70,0003.16
2022-07-09 05:29:00,,0833.2,5.01,0.00,29.6,27.7,00.0,38.2,31.5,26.4,0000.0,0008.49,0003.76,0003.15
2022-07-09 05:30:00,,0833.2,4.99,0.00,29.6,27.4,00.0,38.2,31.4,27.0,0000.0,0008.82,0003.80,0003.15
2022-07-09 05:31:00,,0833.2,5.00,0.00,29.5,27.4,00.0,38.2,31.3,27.0,0000.0,0008.47,0003.81,0003.15
2022-07-09 05:32:00,,0833.2,5.00,0.00,29.5,27.5,00.0,38.2,31.3,27.0,0000.0,0008.26,0003.77,0003.13
2022-07-09 05:33:00,,0833.1,5.00,0.00,29.5,27.6,00.0,38.2,31.3,26.8,0000.0,0008.31,0003.77,0003.12
2022-07-09 05:34:00,,0833.1,5.00,0.00,29.5,27.8,00.0,38.2,31.3,26.8,0000.0,0008.57,0003.78,0003.11
2022-07-09 05:35:00,,0833.1,5.01,0.00,29.5,27.9,00.0,38.2,31.3,26.8,0000.0,0008.66,0003.79,0003.12
2022-07-09 05:36:00,,0833.1,5.00,0.00,29.5,28.0,00.0,38.2,31.4,26.8,0000.0,0008.68,0003.82,0003.12
2022-07-09 05:37:00,,0833.2,4.99,0.00,29.5,28.2,00.0,38.2,31.4,26.7,0000.0,0008.80,0003.81,0003.11
2022-07-09 05:38:00,,0833.1,5.00,0.00,29.5,28.3,00.0,38.3,31.4,26.5,0000.0,0009.31,0003.82,0003.10
2022-07-09 05:39:00,,0833.1,5.01,0.00,29.6,28.4,00.0,38.3,31.5,26.7,0000.0,0009.21,0003.80,0003.10
2022-07-09 05:40:00,,0833.2,5.00,0.00,29.6,28.5,00.0,38.3,31.5,26.8,0000.0,0009.10,0003.74,0003.09
2022-07-09 05:41:00,,0833.1,4.99,0.00,29.6,28.5,00.0,38.3,31.6,26.8,0000.0,0008.91,0003.72,0003.09
2022-07-09 05:42:00,,0833.1,5.00,0.00,29.7,28.6,00.0,38.3,31.6,26.8,0000.0,0008.57,0003.67,0003.09
2022-07-09 05:43:00,,0833.1,5.00,0.00,29.7,28.3,00.0,38.3,31.6,26.7,0000.0,0008.48,0003.69,0003.11
2022-07-09 05:44:00,,0833.1,5.00,0.00,29.6,27.6,00.0,38.3,31.4,26.8,0000.0,0008.27,0003.65,0003.11
2022-07-09 05:45:00,,0833.1,4.99,0.00,29.6,27.4,00.0,38.2,31.4,26.9,0000.0,0007.96,0003.61,0003.10
2022-07-09 05:46:00,,0833.1,5.00,0.00,29.5,27.4,00.0,38.2,31.3,27.0,0000.0,0007.92,0003.60,0003.10
2022-07-09 05:47:00,,0833.1,5.00,0.00,29.5,27.5,00.0,38.2,31.3,27.1,0000.0,0008.38,0003.59,0003.10
2022-07-09 05:48:00,,0833.2,5.00,0.00,29.5,27.6,00.0,38.2,31.3,27.2,0000.0,0008.33,0003.62,0003.11
2022-07-09 05:49:00,,0833.2,4.99,0.00,29.5,27.8,00.0,38.2,31.3,27.2,0000.0,0007.78,0003.60,0003.11
2022-07-09 05:50:00,,0833.2,4.99,0.00,29.5,27.9,00.0,38.3,31.3,27.3,0000.0,0007.73,0003.62,0003.11
2022-07-09 05:51:00,,0833.2,5.00,0.00,29.5,28.0,00.0,38.3,31.3,27.2,0000.0,0007.70,0003.66,0003.12
2022-07-09 05:52:00,,0833.2,5.01,0.00,29.5,28.2,00.0,38.3,31.4,27.4,0000.0,0007.52,0003.66,0003.12
2022-07-09 05:53:00,,0833.2,5.00,0.00,29.5,28.3,00.0,38.3,31.4,27.2,0000.0,0007.61,0003.68,0003.13
2022-07-09 05:54:00,,0833.2,4.99,0.00,29.6,28.4,00.0,38.3,31.5,27.2,0000.0,0007.64,0003.68,0003.13
2022-07-09 05:55:00,,0833.2,5.00,0.00,29.6,28.5,00.0,38.3,31.5,27.2,0000.0,0008.22,0003.73,0003.13
2022-07-09 05:56:00,,0833.2,5.00,0.00,29.6,28.5,00.0,38.3,31.6,27.1,0000.0,0008.31,0003.76,0003.14
2022-07-09 05:57:00,,0833.1,4.99,0.00,29.7,28.6,00.0,38.3,31.6,27.1,0000.0,0008.29,0003.76,0003.14
2022-07-09 05:58:00,,0833.2,5.00,0.00,29.7,28.6,00.0,38.4,31.6,27.1,0000.0,0007.79,0003.78,0003.14
2022-07-09 05:59:00,,0833.2,5.00,0.00,29.7,27.9,00.0,38.3,31.5,27.0,0000.0,0007.74,0003.77,0003.14
